Location: Hermaringen
(48.5952°N, 10.2585°E)
Time: 14:44:15
(UTC+00:00)

Explorer 7 - Pass Details

Date: 17 February 2026
Orbit: 430 x 541 km, 50.2° (Epoch: 8 March)

Event Time Altitude Azimuth Distance (km) Brightness Sun altitude
Rises 20:10:37 0° 287° (WNW) 2,561 11.3 -34.3°
Reaches altitude 10° 20:12:54 10° 278° (W) 1,698 10.0 -34.7°
Enters shadow 20:13:04 11° 276° (W) 1,638 9.9 -34.7°
